Flag for Canada Weather past 2 weeks in Kugluktuk, Nunavut Territory, Canada

Now
-9 °F

Light snow. Mostly cloudy.


Feels Like: -31 °F
Forecast: -11 / -8 °F
Wind: 14 mph from Northwest

Location: Coppermine

Current Time: Jan 26, 2015 at 12:11:28 PM

Latest Report: Jan 26, 2015 at 11:00 AM


Visibility: 5 mi

Pressure: 29.86 "Hg

Humidity: 70%

Dew point: -17 °F

Location of KugluktukLocation

Historic Weather in Kugluktuk — Graph

°F

Kugluktuk temperature yesterday

Maximum temperature yesterday: -6 °F (at 12:00 AM)
Minimum temperature yesterday: -24 °F (at 7:00 PM)
Average temperature yesterday: -13 °F

Past Weeks' High & Low Weather Summary

 TemperatureHumidityPressure
High5 °F (Jan 11, 12:00 PM)85% (Jan 11, 11:00 AM)30.41 "Hg (Jan 11, 11:00 AM)
Low-35 °F (Jan 19, 1:00 AM)62% (Jan 17, 9:00 AM)29.43 "Hg (Jan 21, 8:00 PM)
Average-18 °F73%29.97 "Hg
* Reported Jan 11 11:00 AM — Jan 26 11:00 AM, Kugluktuk, Weather by CustomWeather, © 2014

Note: Actual official high and low records may vary slightly from our data, if they occured in-between our weather recording intervals... More about our weather records

Advertising

Kugluktuk weather history for previous 24 hours

 ConditionsComfort  
Time TempWeatherWind HumidityBarometerVisibility
11:00 AM
Jan 26
-9 °FLight snow. Mostly cloudy.14 mph70%29.86 "Hg5 mi
10:00 AM-9 °FLight snow. Mostly cloudy.14 mph77%29.85 "Hg3 mi
9:00 AM-9 °FLight snow. Overcast.9 mph77%29.84 "Hg3 mi
8:00 AM-9 °FLight snow. Overcast.8 mph77%29.84 "Hg3 mi
7:00 AM-9 °FLight snow. Overcast.8 mph77%29.84 "Hg3 mi
6:00 AM-9 °FLight snow. Overcast.6 mph77%29.84 "Hg4 mi
5:00 AM-9 °FLight snow. Overcast.7 mph77%29.84 "Hg5 mi
4:00 AM-9 °FLight snow. Partly cloudy.8 mph77%29.83 "Hg4 mi
3:00 AM-9 °FLight snow. Mostly cloudy.8 mph77%29.84 "Hg4 mi
2:00 AM-11 °FLight snow. Overcast.10 mph76%29.84 "Hg3 mi
1:00 AM-11 °FLight snow. Overcast.8 mph76%29.84 "Hg3 mi
12:00 AM-11 °FLight snow. Overcast.7 mph76%29.84 "Hg3 mi
11:00 PM
Jan 25
-11 °FLight snow. Overcast.9 mph76%29.86 "Hg10 mi
10:00 PM-13 °FLight snow. Overcast.8 mph76%29.87 "Hg10 mi
9:00 PM-13 °FSnow flurries. Overcast.9 mph76%29.87 "Hg12 mi
8:00 PM-20 °FSnow flurries. Passing clouds.9 mph75%29.87 "Hg15 mi
7:00 PM-24 °FPassing clouds.8 mph75%29.88 "Hg15 mi
6:00 PM-22 °FPassing clouds.9 mph75%29.88 "Hg15 mi
5:00 PM-20 °FPartly cloudy.13 mph75%29.88 "Hg15 mi
4:00 PM-18 °FBroken clouds.12 mph75%29.87 "Hg15 mi
3:00 PM-18 °FBroken clouds.10 mph75%29.86 "Hg15 mi
2:00 PM-18 °FSnow flurries. Broken clouds.7 mph83%29.86 "Hg15 mi
1:00 PM-11 °FSnow flurries. Broken clouds.9 mph76%29.86 "Hg15 mi
12:00 PM-9 °FSnow flurries. Broken clouds.6 mph77%29.84 "Hg15 mi
Weather by CustomWeather, © 2014

See weather overviewHow to use our weather pages